Location: Erdweis
(48.5167°N, 15.3500°E)
Time: 17:29:57
(UTC+00:00)

Resurs 01 Rocket - Pass Details

Date: 18 September 2020
Orbit: 633 x 645 km, 98.0° (Epoch: 30 October)

Event Time Altitude Azimuth Distance (km) Brightness Sun altitude
Exits shadow 17:41:40 - 84° (E) 2,238 3.8 -7.0°
Reaches altitude 10° 17:42:53 10° 70° (ENE) 2,050 3.7 -7.2°
Maximum altitude 17:44:04 11° 55° (NE) 1,987 3.8 -7.4°
Drops below altitude 10° 17:45:14 10° 39° (NE) 2,052 4.0 -7.6°
Sets 17:49:10 0° 4° (N) 2,967 5.2 -8.2°
